^^
Datos históricos de la estación: Murcia-Puente Tocinos
Diario Informe para Abril 22, 2019 Unidades:  Inglés    Métrico   Ambas
Diario Semanal Mensual Anual Configurable
  Máximo: Mínimo: Media:
Temperatura: 66.9 °F 52.9 °F 59.2 °F
Punto de rocio: 53.8 °F 48 °F 50.4 °F
Humedad: 91% 51% 74%
Velocidad viento: 10.2mph 0mph 5.9mph
Racha viento: 19.6mph - -
Viento- - SW
Presión: 29.6 in 29.5 in -
Precipitación: 0.06 in    
Historical Graphs
 
 
Tabla de datos para Abril 22, 2019
Hora Temperatura Punto de rocio Presión Viento Velocidad viento Racha viento Humedad Intensidad lluvia(por hora) Nubes
00:00 54.9 °F 51.1 °F 29.6 in SSW 8 mph 13 mph 87% 0 in RA
00:05 54.9 °F 51.1 °F 29.6 in SW 8.1 mph 11.4 mph 87% 0.04 in RA
00:10 54.9 °F 51.1 °F 29.6 in SW 7.6 mph 12.7 mph 87% 0.04 in CLR
00:15 54.9 °F 51.1 °F 29.6 in SSW 7.6 mph 12.7 mph 87% 0.02 in CLR
00:20 54.9 °F 51.1 °F 29.6 in SW 8.7 mph 11.5 mph 87% 0.02 in CLR
00:25 54.9 °F 51.1 °F 29.6 in West 8.7 mph 11.5 mph 87% 0.02 in CLR
00:30 54.9 °F 51.1 °F 29.6 in SW 7.6 mph 8.1 mph 87% 0.02 in CLR
00:35 54.9 °F 51.1 °F 29.6 in West 7.6 mph 10.2 mph 87% 0.02 in CLR
00:40 54.9 °F 51.1 °F 29.6 in SW 6.2 mph 10.4 mph 87% 0.02 in RA
00:45 54.9 °F 51.4 °F 29.6 in WSW 6.2 mph 9.2 mph 88% 0.02 in RA
00:50 54.7 °F 51.3 °F 29.6 in SW 6.4 mph 10.4 mph 88% 0.02 in RA
00:55 54.7 °F 51.3 °F 29.6 in South 6.4 mph 8.1 mph 88% 0.01 in
01:00 54.7 °F 51.3 °F 29.6 in SW 6 mph 12 mph 88% 0 in RA
01:04 54.7 °F 51.3 °F 29.6 in SSW 6.2 mph 10.2 mph 88% 0.02 in RA
01:09 54.5 °F 51.3 °F 29.6 in WSW 6.2 mph 8.1 mph 89% 0.02 in
01:14 54.3 °F 51.1 °F 29.6 in WSW 6.2 mph 9.2 mph 89% 0.02 in
01:19 54.3 °F 50.7 °F 29.6 in SW 6.4 mph 12.7 mph 88% 0.04 in RA
01:24 54.3 °F 50.5 °F 29.6 in WSW 6.4 mph 17.3 mph 87% 0.04 in RA
01:29 54.3 °F 50.2 °F 29.6 in WSW 8.7 mph 13.8 mph 86% 0.04 in
01:34 54.3 °F 50.2 °F 29.6 in WSW 8.7 mph 17.3 mph 86% 0.05 in RA
01:39 54.1 °F 50 °F 29.6 in SW 10.2 mph 13.7 mph 86% 0.05 in RA
01:44 54.1 °F 50 °F 29.6 in SW 10.2 mph 14 mph 86% 0.05 in RA
01:49 54 °F 49.8 °F 29.6 in WSW 9.2 mph 13.8 mph 86% 0.04 in
01:54 54 °F 49.8 °F 29.6 in WSW 9.2 mph 11.8 mph 86% 0.04 in CLR
01:59 54 °F 49.8 °F 29.6 in SSW 8.7 mph 11.5 mph 86% 0.04 in CLR
02:04 54 °F 49.6 °F 29.6 in South 8.7 mph 13.8 mph 85% 0.03 in CLR
02:09 54 °F 49.6 °F 29.6 in SSW 8.5 mph 11.5 mph 85% 0.03 in CLR
02:14 54 °F 49.6 °F 29.6 in SW 8.5 mph 15 mph 85% 0.03 in CLR
02:19 54 °F 49.3 °F 29.6 in SW 8.7 mph 12.7 mph 84% 0.03 in CLR
02:24 54 °F 48.9 °F 29.6 in SW 8.7 mph 16.1 mph 83% 0.01 in CLR
02:29 54 °F 48.9 °F 29.6 in WSW 8.7 mph 13.8 mph 83% 0.01 in CLR
02:34 54.1 °F 49.1 °F 29.6 in WSW 8.7 mph 15 mph 83% 0.01 in CLR
02:39 54.1 °F 49.1 °F 29.6 in SSW 9.2 mph 12.7 mph 83% 0 in CLR
02:44 54.1 °F 49.5 °F 29.6 in SSW 9.2 mph 8.1 mph 84% 0 in CLR
02:49 54.1 °F 49.5 °F 29.6 in South 7.4 mph 10.4 mph 84% 0 in CLR
02:54 54.1 °F 49.6 °F 29.6 in SSW 7.4 mph 8.1 mph 85% 0 in CLR
02:59 54.1 °F 50 °F 29.6 in SSW 6.4 mph 9.2 mph 86% 0 in CLR
03:04 54 °F 49.8 °F 29.6 in South 6.4 mph 9.2 mph 86% 0 in CLR
03:09 53.8 °F 50 °F 29.6 in SSW 6.4 mph 10.4 mph 87% 0 in CLR
03:14 53.4 °F 50 °F 29.6 in South 6.4 mph 10.4 mph 88% 0 in CLR
03:19 53.4 °F 50 °F 29.6 in SSW 7.4 mph 10.4 mph 88% 0 in CLR
03:24 53.4 °F 50 °F 29.6 in SSW 7.4 mph 13.8 mph 88% 0 in CLR
03:29 53.4 °F 49.6 °F 29.6 in SSW 8.1 mph 16.1 mph 87% 0 in CLR
03:34 53.6 °F 49.8 °F 29.6 in WSW 8.1 mph 12.7 mph 87% 0 in CLR
03:39 53.6 °F 49.5 °F 29.6 in South 9.2 mph 11.5 mph 86% 0 in CLR
03:44 53.6 °F 49.5 °F 29.6 in SW 9.2 mph 8.1 mph 86% 0 in CLR
03:49 53.6 °F 49.5 °F 29.6 in SW 7.4 mph 13.8 mph 86% 0 in CLR
03:54 53.6 °F 49.5 °F 29.6 in SSW 7.4 mph 11.5 mph 86% 0 in CLR
03:59 53.6 °F 49.5 °F 29.6 in SSW 8.1 mph 13.8 mph 86% 0 in CLR
04:04 53.6 °F 49.5 °F 29.6 in South 8.1 mph 12.7 mph 86% 0 in CLR
04:09 53.6 °F 49.5 °F 29.6 in SSW 7.6 mph 10.4 mph 86% 0 in CLR
04:14 53.6 °F 49.5 °F 29.6 in SSW 7.6 mph 10.4 mph 86% 0 in CLR
04:19 53.6 °F 49.5 °F 29.6 in SW 6.9 mph 11.5 mph 86% 0 in CLR
04:24 53.6 °F 49.5 °F 29.6 in SSW 6.9 mph 11.5 mph 86% 0 in CLR
04:29 53.8 °F 49.6 °F 29.6 in WSW 6.9 mph 11.4 mph 86% 0 in CLR
04:34 53.8 °F 49.6 °F 29.6 in SSW 6.9 mph 10.2 mph 86% 0 in CLR
04:39 53.8 °F 49.6 °F 29.6 in SW 6.9 mph 10.4 mph 86% 0 in CLR
04:44 53.8 °F 49.6 °F 29.6 in SSW 6.9 mph 10.4 mph 86% 0 in CLR
04:49 53.8 °F 49.6 °F 29.6 in SSW 6.9 mph 11.5 mph 86% 0 in CLR
04:54 53.8 °F 49.5 °F 29.6 in SSW 6.9 mph 10.4 mph 85% 0 in CLR
04:59 53.8 °F 49.5 °F 29.6 in SSW 7.4 mph 9.2 mph 85% 0 in CLR
05:04 54 °F 49.6 °F 29.6 in SW 7.4 mph 10.4 mph 85% 0 in CLR
05:09 54 °F 49.6 °F 29.6 in SW 5.9 mph 10.4 mph 85% 0 in CLR
05:14 54 °F 49.6 °F 29.6 in South 5.9 mph 9.2 mph 85% 0 in CLR
05:19 54 °F 49.6 °F 29.6 in SSW 6.4 mph 11.5 mph 85% 0 in CLR
05:24 53.8 °F 49.6 °F 29.6 in WSW 6.4 mph 8.7 mph 86% 0 in CLR
05:29 53.8 °F 49.6 °F 29.6 in SW 6.4 mph 10.4 mph 86% 0 in CLR
05:34 53.8 °F 49.6 °F 29.6 in SSW 6.4 mph 11.5 mph 86% 0 in CLR
05:39 53.8 °F 49.6 °F 29.6 in South 6.9 mph 9.2 mph 86% 0 in CLR
05:44 53.8 °F 49.6 °F 29.6 in South 6.9 mph 8.1 mph 86% 0 in CLR
05:49 53.8 °F 49.6 °F 29.6 in South 6.4 mph 10.4 mph 86% 0 in CLR
05:54 54 °F 49.8 °F 29.6 in South 6.4 mph 9.2 mph 86% 0 in CLR
05:59 54 °F 49.8 °F 29.6 in SW 6.2 mph 8.1 mph 86% 0 in CLR
06:04 53.8 °F 50 °F 29.6 in SW 6.2 mph 7.6 mph 87% 0 in CLR
06:09 53.8 °F 50 °F 29.6 in WSW 5.2 mph 6.9 mph 87% 0 in CLR
06:14 53.8 °F 50.4 °F 29.6 in SW 5.2 mph 9.2 mph 88% 0.01 in RA
06:19 53.6 °F 50.2 °F 29.6 in SW 5.2 mph 9.2 mph 88% 0.01 in RA
06:24 53.6 °F 50.4 °F 29.6 in South 5.2 mph 8.1 mph 89% 0.01 in RA
06:29 53.4 °F 50.4 °F 29.6 in SSW 5.4 mph 10.4 mph 89% 0.01 in
06:34 53.4 °F 50.4 °F 29.6 in South 5.4 mph 9.2 mph 89% 0.01 in CLR
06:39 53.4 °F 50.5 °F 29.6 in South 6.4 mph 8.1 mph 90% 0.01 in CLR
06:44 53.2 °F 50.4 °F 29.6 in South 6.4 mph 8.7 mph 90% 0.01 in CLR
06:49 53.2 °F 50.4 °F 29.5 in SSW 5.9 mph 9.2 mph 90% 0.01 in CLR
06:54 53.1 °F 50.5 °F 29.5 in SSW 5.9 mph 11.5 mph 91% 0.01 in CLR
06:59 53.1 °F 50.5 °F 29.5 in SSW 6.9 mph 11.5 mph 91% 0.01 in CLR
07:04 52.9 °F 50.4 °F 29.5 in SSW 6.9 mph 11.5 mph 91% 0.01 in CLR
07:09 53.1 °F 50.5 °F 29.5 in SSW 7.6 mph 12.7 mph 91% 0.01 in CLR
07:14 53.1 °F 50.2 °F 29.5 in SW 7.6 mph 12.7 mph 90% 0.01 in CLR
07:19 53.2 °F 50.4 °F 29.5 in SSW 8.1 mph 13.8 mph 90% 0.01 in CLR
07:24 53.4 °F 50.4 °F 29.5 in SW 8.1 mph 11.5 mph 89% 0 in CLR
07:29 53.4 °F 50.4 °F 29.5 in South 9.7 mph 15 mph 89% 0 in CLR
07:34 53.4 °F 50.4 °F 29.5 in South 9.7 mph 13.8 mph 89% 0 in CLR
07:39 53.6 °F 50.4 °F 29.5 in SSW 8.5 mph 15 mph 89% 0 in CLR
07:44 53.8 °F 50.5 °F 29.5 in SSW 8.5 mph 10.4 mph 89% 0 in CLR
07:49 53.8 °F 50.4 °F 29.6 in SSW 8.1 mph 13.8 mph 88% 0 in CLR
07:54 53.8 °F 50.4 °F 29.6 in SSW 8.1 mph 10.4 mph 88% 0 in CLR
07:59 54 °F 50.5 °F 29.6 in SW 7.4 mph 11.5 mph 88% 0 in CLR
08:04 54 °F 50.5 °F 29.6 in SW 7.4 mph 11.5 mph 88% 0 in CLR
08:09 54.1 °F 50.4 °F 29.6 in SSW 6.4 mph 8.1 mph 87% 0 in CLR
08:14 54.1 °F 50.4 °F 29.6 in SW 6.4 mph 9.2 mph 87% 0 in CLR
08:19 54.1 °F 50.4 °F 29.6 in WSW 6.4 mph 8.1 mph 87% 0 in CLR
08:24 54.1 °F 50.4 °F 29.6 in SSW 6.4 mph 8.1 mph 87% 0 in CLR
08:29 54.3 °F 50.2 °F 29.6 in SSW 6.2 mph 8.1 mph 86% 0 in CLR
08:34 54.3 °F 50.2 °F 29.6 in SSW 6.2 mph 7.6 mph 86% 0 in CLR
08:39 54.3 °F 50.2 °F 29.6 in SSW 5.9 mph 9.2 mph 86% 0 in CLR
08:44 54.5 °F 50.4 °F 29.6 in SSW 5.9 mph 9.2 mph 86% 0 in CLR
08:49 54.5 °F 50.4 °F 29.6 in South 6.4 mph 8.1 mph 86% 0 in CLR
08:54 54.7 °F 50.5 °F 29.6 in SSW 6.4 mph 10.4 mph 86% 0 in CLR
08:59 54.7 °F 50.5 °F 29.6 in SSW 6.2 mph 8.1 mph 86% 0 in CLR
09:04 54.9 °F 50.7 °F 29.6 in SSW 6.2 mph 9.2 mph 86% 0 in CLR
09:09 54.9 °F 50.7 °F 29.6 in SW 6.4 mph 6.9 mph 86% 0 in CLR
09:14 54.9 °F 50.7 °F 29.6 in SW 6.4 mph 6.9 mph 86% 0 in CLR
09:19 54.9 °F 50.7 °F 29.6 in SSW 5.4 mph 8.1 mph 86% 0 in CLR
09:24 54.9 °F 50.7 °F 29.6 in SSW 5.4 mph 8.1 mph 86% 0 in CLR
09:29 55 °F 50.9 °F 29.6 in SSW 5.9 mph 8.1 mph 86% 0 in CLR
09:34 55 °F 50.9 °F 29.6 in SSW 5.9 mph 6.2 mph 86% 0 in CLR
09:39 55 °F 50.9 °F 29.6 in SW 5.2 mph 6.9 mph 86% 0 in CLR
09:44 55.2 °F 51.1 °F 29.6 in SW 5.2 mph 10.4 mph 86% 0 in CLR
09:49 55.2 °F 51.1 °F 29.6 in SW 4.7 mph 5.8 mph 86% 0 in CLR
09:54 55.4 °F 51.1 °F 29.6 in SW 4.7 mph 8.1 mph 85% 0 in CLR
09:59 55.6 °F 50.7 °F 29.6 in SW 4.7 mph 5.8 mph 84% 0 in CLR
10:04 55.6 °F 50.7 °F 29.6 in SSW 4.7 mph 6.9 mph 84% 0 in CLR
10:09 55.8 °F 50.7 °F 29.6 in SSW 4.3 mph 8.1 mph 83% 0 in CLR
10:14 55.8 °F 50.7 °F 29.6 in SSW 4.3 mph 8.1 mph 83% 0 in CLR
10:19 55.8 °F 50.7 °F 29.6 in SSW 5.2 mph 9.2 mph 83% 0 in CLR
10:24 55.8 °F 51.1 °F 29.6 in SSW 5.2 mph 8.1 mph 84% 0 in CLR
10:29 55.8 °F 50.7 °F 29.6 in SSW 5.9 mph 9.2 mph 83% 0 in CLR
10:34 55.8 °F 51.1 °F 29.6 in SSW 5.9 mph 8.5 mph 84% 0 in CLR
10:39 55.8 °F 50.7 °F 29.6 in SSW 5.2 mph 8.1 mph 83% 0 in CLR
10:44 55.9 °F 50.9 °F 29.6 in SSW 5.2 mph 6.9 mph 83% 0 in CLR
10:49 55.9 °F 50.9 °F 29.6 in SSW 4.7 mph 4.6 mph 83% 0 in CLR
10:54 55.9 °F 50.9 °F 29.6 in SSW 4.7 mph 6.9 mph 83% 0 in CLR
10:59 56.1 °F 51.1 °F 29.6 in South 3.6 mph 4.6 mph 83% 0 in CLR
11:04 56.1 °F 50.7 °F 29.6 in SSE 3.6 mph 4.7 mph 82% 0 in CLR
11:09 56.5 °F 50.7 °F 29.6 in South 3.6 mph 5.8 mph 81% 0 in CLR
11:14 56.5 °F 51.1 °F 29.6 in SSE 3.6 mph 4.6 mph 82% 0 in CLR
11:19 56.7 °F 51.3 °F 29.6 in South 3.1 mph 4.7 mph 82% 0 in CLR
11:24 56.7 °F 51.3 °F 29.6 in SSW 3.1 mph 4.6 mph 82% 0 in CLR
11:29 56.8 °F 51.4 °F 29.6 in SW 4 mph 4.6 mph 82% 0 in CLR
11:34 57 °F 51.6 °F 29.6 in SW 4 mph 4.6 mph 82% 0 in CLR
11:39 57.2 °F 51.4 °F 29.6 in SSW 2.9 mph 6.9 mph 81% 0 in CLR
11:44 57.4 °F 51.6 °F 29.6 in SSW 2.9 mph 7.4 mph 81% 0 in CLR
11:49 57.6 °F 51.4 °F 29.6 in SW 4.3 mph 9.2 mph 80% 0 in CLR
11:55 57.7 °F 51.3 °F 29.6 in SSW 5 mph 9 mph 79% 0 in CLR
11:59 57.9 °F 51.1 °F 29.6 in South 4.7 mph 5.8 mph 78% 0 in CLR
12:04 58.3 °F 51.1 °F 29.6 in WSW 4.7 mph 6.9 mph 77% 0 in CLR
12:09 58.5 °F 50.9 °F 29.6 in West 4 mph 4.6 mph 76% 0 in CLR
12:14 58.8 °F 50.5 °F 29.6 in WSW 4 mph 10.4 mph 74% 0 in CLR
12:19 59.2 °F 50.9 °F 29.6 in West 4.3 mph 6.9 mph 74% 0 in CLR
12:24 59.4 °F 50.7 °F 29.6 in NNW 4.3 mph 8.1 mph 73% 0 in CLR
12:29 59.7 °F 50.7 °F 29.6 in SW 4.3 mph 6.9 mph 72% 0 in CLR
12:34 60.1 °F 50.5 °F 29.6 in WSW 4.3 mph 8.5 mph 71% 0 in CLR
12:39 60.6 °F 50.4 °F 29.6 in WSW 5.9 mph 9.2 mph 69% 0 in CLR
12:44 61 °F 50.4 °F 29.6 in WNW 5.9 mph 18.4 mph 68% 0 in CLR
12:49 61.2 °F 50.2 °F 29.6 in WNW 8.1 mph 11.5 mph 67% 0 in CLR
12:54 61.5 °F 50.5 °F 29.6 in WNW 8.1 mph 10.4 mph 67% 0 in CLR
12:59 61.9 °F 50.7 °F 29.6 in West 6.9 mph 8.1 mph 67% 0 in CLR
13:04 62.1 °F 50.2 °F 29.6 in WNW 6.9 mph 12.7 mph 65% 0 in CLR
13:09 62.1 °F 49.6 °F 29.6 in NW 7.4 mph 10.4 mph 64% 0 in CLR
13:14 62.1 °F 49.6 °F 29.6 in WNW 7.4 mph 15 mph 64% 0 in CLR
13:19 62.2 °F 50.4 °F 29.5 in West 9.2 mph 10.4 mph 65% 0 in CLR
13:24 62.4 °F 50.2 °F 29.5 in WNW 9.2 mph 16.1 mph 64% 0 in CLR
13:29 62.4 °F 50.2 °F 29.5 in WNW 7.6 mph 15 mph 64% 0 in CLR
13:34 62.4 °F 50.2 °F 29.5 in West 7.6 mph 15 mph 64% 0 in CLR
13:39 62.8 °F 50 °F 29.5 in WNW 9.7 mph 14.5 mph 63% 0 in CLR
13:44 63.1 °F 50.4 °F 29.5 in West 9.7 mph 10.4 mph 63% 0 in CLR
13:49 63.3 °F 50.2 °F 29.5 in WNW 9.7 mph 12.7 mph 62% 0 in CLR
13:55 63.7 °F 50.4 °F 29.5 in WNW 9 mph 14 mph 62% 0 in CLR
13:59 63.7 °F 50.4 °F 29.5 in WNW 8.7 mph 11.5 mph 62% 0 in CLR
14:04 63.7 °F 50 °F 29.5 in NW 8.7 mph 16.1 mph 61% 0 in CLR
14:09 63.7 °F 50 °F 29.5 in WNW 8.5 mph 13.8 mph 61% 0 in CLR
14:14 63.9 °F 50.2 °F 29.5 in WNW 8.5 mph 13.8 mph 61% 0 in CLR
14:19 63.9 °F 50.2 °F 29.5 in NW 8.5 mph 11.5 mph 61% 0 in CLR
14:24 64 °F 49.8 °F 29.5 in WNW 8.5 mph 12.7 mph 60% 0 in CLR
14:29 64 °F 49.5 °F 29.5 in WNW 7.4 mph 13.8 mph 59% 0 in CLR
14:34 64.2 °F 49.6 °F 29.5 in West 7.4 mph 8.1 mph 59% 0 in CLR
14:39 64.8 °F 50.2 °F 29.5 in West 6.9 mph 12.7 mph 59% 0 in CLR
14:44 65.1 °F 50.4 °F 29.5 in WNW 6.9 mph 9.2 mph 59% 0 in CLR
14:49 65.7 °F 50 °F 29.5 in WSW 5.9 mph 9.2 mph 57% 0 in CLR
14:54 65.8 °F 50.5 °F 29.5 in NW 5.9 mph 9.2 mph 58% 0 in CLR
14:59 65.7 °F 49.5 °F 29.5 in NW 6.2 mph 9.2 mph 56% 0 in CLR
15:04 65.5 °F 49.5 °F 29.5 in NNW 6.2 mph 8.1 mph 56% 0 in CLR
15:09 65.5 °F 49.5 °F 29.5 in WNW 5.9 mph 6.9 mph 56% 0 in CLR
15:14 65.3 °F 49.3 °F 29.5 in West 5.9 mph 10.4 mph 56% 0 in CLR
15:19 65.3 °F 48.7 °F 29.5 in West 4.3 mph 9.2 mph 55% 0 in CLR
15:24 65.5 °F 48.9 °F 29.5 in WSW 4.3 mph 10.4 mph 55% 0 in CLR
15:29 65.5 °F 49.5 °F 29.5 in WNW 6.2 mph 6.9 mph 56% 0 in CLR
15:35 65.5 °F 48.9 °F 29.5 in WSW 6.2 mph 10.4 mph 55% 0 in CLR
15:39 65.7 °F 49.5 °F 29.5 in West 5.4 mph 6.9 mph 56% 0 in CLR
15:44 65.7 °F 49.5 °F 29.5 in WSW 5.4 mph 9.2 mph 56% 0 in CLR
15:49 65.7 °F 49.5 °F 29.5 in West 5.2 mph 9.2 mph 56% 0 in CLR
15:54 65.8 °F 49.6 °F 29.5 in WSW 5.2 mph 9.2 mph 56% 0 in CLR
15:59 66 °F 49.5 °F 29.5 in SW 5.2 mph 9.2 mph 55% 0 in CLR
16:05 66.4 °F 49.6 °F 29.5 in WSW 5 mph 12 mph 55% 0 in CLR
16:09 66.2 °F 49.6 °F 29.5 in SW 6.2 mph 9.2 mph 55% 0 in CLR
16:14 66.2 °F 49.6 °F 29.5 in WSW 6.2 mph 8.1 mph 55% 0 in CLR
16:19 66.4 °F 49.3 °F 29.5 in WSW 5.4 mph 8.1 mph 54% 0 in CLR
16:25 66.4 °F 49.6 °F 29.5 in WSW 6 mph 9 mph 55% 0 in CLR
16:29 66.4 °F 49.6 °F 29.5 in NW 5.4 mph 5.8 mph 55% 0 in CLR
16:34 66.6 °F 49.5 °F 29.5 in SW 5.4 mph 12.7 mph 54% 0 in CLR
16:39 66.6 °F 49.5 °F 29.5 in WNW 5.9 mph 11.5 mph 54% 0 in CLR
16:44 66.6 °F 48.4 °F 29.5 in WSW 5.9 mph 12.7 mph 52% 0 in CLR
16:49 66.4 °F 48.2 °F 29.5 in West 7.4 mph 15 mph 52% 0 in CLR
16:54 66.4 °F 48.2 °F 29.5 in WNW 7.4 mph 16.1 mph 52% 0 in CLR
16:59 66.2 °F 48 °F 29.5 in West 8.1 mph 11.5 mph 52% 0 in CLR
17:04 66.4 °F 48.2 °F 29.5 in SW 8.1 mph 11.5 mph 52% 0 in CLR
17:09 66.6 °F 48.4 °F 29.5 in West 7.6 mph 12.7 mph 52% 0 in CLR
17:14 66.7 °F 48.6 °F 29.5 in NW 7.6 mph 19.6 mph 52% 0 in CLR
17:19 66.9 °F 48.7 °F 29.5 in West 8.7 mph 16.1 mph 52% 0 in CLR
17:24 66.7 °F 48.6 °F 29.5 in WSW 8.7 mph 12.7 mph 52% 0 in CLR
17:29 66.7 °F 48 °F 29.5 in West 8.7 mph 18.4 mph 51% 0 in CLR
17:34 66.7 °F 49.1 °F 29.5 in NNW 8.7 mph 11.5 mph 53% 0 in CLR
17:39 66.7 °F 49.1 °F 29.5 in WNW 8.7 mph 16.1 mph 53% 0 in CLR
17:45 66.6 °F 48.9 °F 29.5 in West 9 mph 14 mph 53% 0 in CLR
17:49 66.4 °F 49.3 °F 29.5 in West 8.1 mph 9.2 mph 54% 0 in CLR
17:54 66.2 °F 48.6 °F 29.5 in West 8.1 mph 10.4 mph 53% 0 in CLR
17:59 66 °F 48.4 °F 29.5 in West 8.1 mph 12.7 mph 53% 0 in CLR
18:04 65.8 °F 48.7 °F 29.5 in West 8.1 mph 12.5 mph 54% 0 in CLR
18:09 65.8 °F 48.2 °F 29.5 in WNW 6.9 mph 10.4 mph 53% 0 in CLR
18:14 65.8 °F 48.7 °F 29.5 in West 6.9 mph 8.1 mph 54% 0 in CLR
18:19 65.8 °F 49.3 °F 29.5 in West 5.9 mph 5.8 mph 55% 0 in CLR
18:25 65.8 °F 48.7 °F 29.5 in WSW 5.9 mph 9.2 mph 54% 0 in CLR
18:29 65.8 °F 48.7 °F 29.5 in West 4 mph 5.9 mph 54% 0 in CLR
18:35 65.8 °F 48.7 °F 29.5 in West 5 mph 6 mph 54% 0 in CLR
18:39 65.8 °F 48.2 °F 29.5 in WNW 3.6 mph 6.4 mph 53% 0 in CLR
18:45 65.7 °F 48.6 °F 29.5 in WNW 3 mph 8 mph 54% 0 in CLR
18:49 65.7 °F 48.6 °F 29.5 in WNW 4.3 mph 4.6 mph 54% 0 in CLR
18:55 65.7 °F 48.6 °F 29.5 in WNW 5 mph 7 mph 54% 0 in CLR
18:59 65.7 °F 48.6 °F 29.5 in West 3.6 mph 6.9 mph 54% 0 in CLR
19:05 65.7 °F 48.9 °F 29.5 in WNW 3 mph 7 mph 55% 0 in CLR
19:09 65.7 °F 48.9 °F 29.5 in SW 2.9 mph 5.8 mph 55% 0 in CLR
19:15 65.7 °F 48.9 °F 29.5 in South 2.9 mph 4.6 mph 55% 0 in CLR
19:19 65.7 °F 50 °F 29.5 in SSE 2.9 mph 3.5 mph 57% 0 in CLR
19:25 65.5 °F 50.4 °F 29.5 in SE 2.9 mph 4.6 mph 58% 0 in CLR
19:29 65.1 °F 50.9 °F 29.5 in SE 3.6 mph 5.8 mph 60% 0 in CLR
19:34 64.9 °F 51.3 °F 29.5 in SSE 3.6 mph 4.6 mph 61% 0 in CLR
19:39 64.9 °F 51.3 °F 29.5 in SE 3.1 mph 4.6 mph 61% 0 in CLR
19:44 64.8 °F 51.1 °F 29.5 in SE 3.1 mph 4.6 mph 61% 0 in CLR
19:49 64.8 °F 51.1 °F 29.5 in SE 3.6 mph 5.8 mph 61% 0 in CLR
19:54 64.6 °F 50.7 °F 29.5 in ESE 3.6 mph 3.5 mph 61% 0 in CLR
19:59 64.6 °F 51.3 °F 29.5 in South 2.9 mph 5.4 mph 62% 0 in CLR
20:04 64.6 °F 50.7 °F 29.5 in SE 2.9 mph 4.6 mph 61% 0 in CLR
20:09 64.6 °F 50.7 °F 29.5 in SSE 3.1 mph 4.6 mph 61% 0 in CLR
20:15 64.6 °F 50.7 °F 29.5 in South 3.1 mph 4.6 mph 61% 0 in CLR
20:19 64.6 °F 50.7 °F 29.5 in SSE 3.6 mph 5.8 mph 61% 0 in CLR
20:24 64.4 °F 51.1 °F 29.5 in SSW 3.6 mph 4.6 mph 62% 0 in CLR
20:29 64.4 °F 50.7 °F 29.5 in South 3.6 mph 5.8 mph 61% 0 in CLR
20:34 64.2 °F 50.9 °F 29.5 in SSW 3.6 mph 5.8 mph 62% 0 in CLR
20:39 64.2 °F 51.4 °F 29.5 in SSW 4 mph 9.2 mph 63% 0 in CLR
20:44 64 °F 51.6 °F 29.5 in SSW 4 mph 5.4 mph 64% 0 in CLR
20:49 64 °F 52 °F 29.5 in South 4.3 mph 6.9 mph 65% 0 in CLR
20:54 63.9 °F 52.3 °F 29.5 in South 4.3 mph 4.6 mph 66% 0 in CLR
21:00 63.9 °F 52.3 °F 29.5 in South 3 mph 5 mph 66% 0 in CLR
21:04 63.7 °F 52.5 °F 29.5 in South 3.6 mph 4.6 mph 67% 0 in CLR
21:09 63.7 °F 52.5 °F 29.5 in South 3.1 mph 4.6 mph 67% 0 in CLR
21:14 63.5 °F 52.7 °F 29.5 in WSW 3.1 mph 5.8 mph 68% 0 in CLR
21:19 63.5 °F 53.1 °F 29.5 in SW 2.4 mph 5.2 mph 69% 0 in CLR
21:24 63.3 °F 53.4 °F 29.5 in SW 2.4 mph 4.6 mph 70% 0 in CLR
21:29 63.1 °F 53.2 °F 29.5 in South 3.6 mph 8.1 mph 70% 0 in CLR
21:34 63 °F 52.5 °F 29.5 in SSW 3.6 mph 11.5 mph 69% 0 in CLR
21:39 63 °F 52.2 °F 29.5 in SW 5.9 mph 11.5 mph 68% 0 in CLR
21:45 62.8 °F 52.2 °F 29.5 in South 5.9 mph 8.1 mph 68% 0 in CLR
21:49 62.8 °F 52.2 °F 29.5 in SW 6.2 mph 9.2 mph 68% 0 in CLR
21:55 62.6 °F 52 °F 29.5 in SSW 6 mph 12 mph 68% 0 in CLR
22:00 62.8 °F 51.6 °F 29.5 in SSW 7 mph 12 mph 67% 0 in CLR
22:05 62.8 °F 51.6 °F 29.5 in SSW 7 mph 9 mph 67% 0 in CLR
22:09 62.4 °F 51.6 °F 29.5 in South 5.9 mph 6.9 mph 68% 0 in CLR
22:15 62.4 °F 52.2 °F 29.5 in South 6 mph 10 mph 69% 0 in CLR
22:19 62.2 °F 52 °F 29.5 in SSE 4.7 mph 6.9 mph 69% 0 in CLR
22:24 62.2 °F 52.7 °F 29.5 in East 4.7 mph 4.6 mph 71% 0 in CLR
22:29 61.9 °F 53.1 °F 29.5 in ESE 3.1 mph 3.5 mph 73% 0 in CLR
22:35 61.9 °F 53.1 °F 29.5 in ESE 3 mph   73% 0 in CLR
22:39 61.5 °F 53.2 °F 29.5 in Calm   2.3 mph 74% 0 in CLR
22:44 61.3 °F 53.2 °F 29.5 in Calm     75% 0 in CLR
22:49 61.3 °F 53.8 °F 29.5 in Calm     76% 0 in CLR
22:55 61.2 °F 53.4 °F 29.5 in Calm   5 mph 76% 0 in CLR
22:59 61 °F 53.4 °F 29.5 in NNW 1.4 mph   76% 0 in CLR
23:05 60.6 °F 53.4 °F 29.5 in NNW 1.4 mph 2.9 mph 77% 0 in CLR
23:09 60.6 °F 53.1 °F 29.5 in NNW 1.4 mph 3.5 mph 76% 0 in CLR
23:14 60.6 °F 52.5 °F 29.5 in NNW 1.4 mph 2.3 mph 75% 0 in CLR
23:19 60.4 °F 52.5 °F 29.5 in NNW 1.8 mph 2.4 mph 75% 0 in CLR
23:25 60.4 °F 52.5 °F 29.5 in NNW 1.8 mph   75% 0 in CLR
23:29 60.4 °F 52.5 °F 29.5 in Calm     75% 0 in CLR
23:34 60.4 °F 52.9 °F 29.5 in Calm     76% 0 in CLR
23:39 60.3 °F 52.7 °F 29.5 in Calm   1.4 mph 76% 0 in CLR
23:45 60.3 °F 52.7 °F 29.5 in Calm   5.8 mph 76% 0 in CLR
23:49 60.3 °F 52.7 °F 29.5 in SW 2.4 mph 6.9 mph 76% 0 in CLR
23:54 60.3 °F 52.7 °F 29.5 in South 2.4 mph 4.6 mph 76% 0 in CLR
23:59 60.1 °F 52.5 °F 29.5 in South 4.3 mph 4.6 mph 76% 0 in CLR
Murcia-Puente Tocinos, España
Compliments of Weather Underground - 2.75 mb

La estación de MeteoMurcia.com, publica sus datos en los siguientes proyectos:

Weather Underground PWS IMURCIAP2 Meteoclimatic www.awekas.at

W3Counter
Web Analytics